This demonstration page uses our WeatherBlox Daily Observations layout. Learn more.

Left ArrowRight Arrow

Hourly Observations for August 17, 2022

Temp ( °F °C ) Dew Point ( °F °C ) Humidity (%) Winds ( mph kmh ) Pressure ( in mb ) Visibility ( mi km ) Precip ( " mm )
12:53 am 00:53 Clear 66 18.9 35 1.7 32 32 W 3 6 29.93 1013 10 16 0.00 0.00
1:53 am 01:53 Clear 61 16.1 38 3.3 42 42 SW 7 11 29.95 1014 10 16 0.00 0.00
2:53 am 02:53 Clear 59 15 37 2.8 44 44 S 6 9 29.95 1014 10 16 0.00 0.00
3:53 am 03:53 Clear 57 13.9 38 3.3 49 49 NW 7 11 29.97 1015 10 16 0.00 0.00
4:53 am 04:53 Clear 56 13.3 37 2.8 49 49 WSW 5 7 29.99 1016 10 16 0.00 0.00
5:53 am 05:53 Clear 56 13.3 40 4.4 55 55 SSW 6 9 30.03 1017 10 16 0.00 0.00
6:53 am 06:53 Sunny 65 18.3 46 7.8 50 50 ESE 6 9 30.05 1018 10 16 0.00 0.00
7:53 am 07:53 Sunny 70 21.1 49 9.4 47 47 SSE 3 6 30.07 1018 10 16 0.00 0.00
8:53 am 08:53 Sunny 74 23.3 51 10.6 45 45 NW 6 9 30.10 1019 10 16 0.00 0.00
9:53 am 09:53 Sunny 82 27.8 53 11.7 37 37 N 13 20 30.10 1019 10 16 0.00 0.00
10:53 am 10:53 Sunny 86 30 46 7.8 25 25 NNE 12 19 30.08 1019 10 16 0.00 0.00
11:53 am 11:53 Sunny 88 31.1 49 9.4 26 26 N 12 19 30.08 1019 10 16 0.00 0.00
12:53 pm 12:53 Sunny 89 31.7 46 7.8 23 23 N 13 20 30.09 1019 10 16 0.00 0.00
1:53 pm 13:53 Sunny 92 33.3 47 8.3 21 21 NNE 8 13 30.09 1019 10 16 0.00 0.00
2:53 pm 14:53 Sunny 91 32.8 45 7.2 20 20 undefined N/A 30.09 1019 10 16 0.00 0.00
3:53 pm 15:53 Sunny 92 33.3 45 7.2 20 20 VRB 5 7 30.07 1018 10 16 0.00 0.00
4:53 pm 16:53 Partly Cloudy 90 32.2 45 7.2 21 21 NNE 9 15 30.07 1018 10 16 0.00 0.00
5:53 pm 17:53 Mostly Sunny 91 32.8 45 7.2 20 20 N 8 13 30.06 1018 10 16 0.00 0.00
6:53 pm 18:53 Partly Cloudy 90 32.2 46 7.8 22 22 N 13 20 30.04 1017 10 16 0.00 0.00
7:53 pm 19:53 Mostly Cloudy 86 30 47 8.3 26 26 NNE 12 19 30.05 1018 10 16 0.00 0.00
8:53 pm 20:53 Clear 81 27.2 46 7.8 29 29 NE 9 15 30.07 1018 10 16 0.00 0.00
9:53 pm 21:53 Clear 77 25 46 7.8 33 33 NE 8 13 30.08 1019 10 16 0.00 0.00
10:53 pm 22:53 Clear 72 22.2 46 7.8 40 40 ENE 7 11 30.09 1019 10 16 0.00 0.00
11:53 pm 23:53 Clear 69 20.6 46 7.8 44 44 ENE 5 7 30.11 1020 10 16 0.00 0.00

Powered by AerisWeather